Weather Roundup
Issued by NWS

Home | Current Version | Previous Version | Text Only | Print | Product List | Glossary On
Versions: 1 2 3 4 5 6 7 8 9 10 11 12 13 14 15 16 17 18 19 20 21 22 23 24 25 26 27 28 29 30 31 32 33 34 35 36 37 38 39 40 41 42 43 44 45 46 47 48 49 50
000
NZUS93 KARX 270859
HRRWXR

CURRENT HOURLY OBSERVATIONS ACROSS
MUCH OF THE UPPER MISSISSIPPI VALLEY
NATIONAL WEATHER SERVICE LA CROSSE WI
300 AM CST MON FEB 27 2017


...SOUTHEAST MINNESOTA...


CITY           SKY/WX    TMP DP  RH WIND       PRES   REMARKS
ROCHESTER      PTCLDY    16  14  92 S7        29.97F WCI   6
ROCHESTER/MAYO FAIR      19  18  96 CALM      29.98S
WINONA         CLEAR     19  19 100 CALM      30.03S
AUSTIN         CLEAR     16  12  86 S5        29.98S WCI   9
ALBERT LEA     CLEAR     19  19 100 CALM      29.96F
DODGE CENTER   NOT AVBL
PRESTON        CLEAR     17  15  90 S8        29.99S WCI   7
OWATONNA       CLEAR     21  16  79 S10       29.95F WCI  10
FARIBAULT      CLEAR     19  18  93 S8        29.96S WCI   9
$$

...ELSEWHERE IN MINNESOTA...


CITY           SKY/WX    TMP DP  RH WIND       PRES   REMARKS
MINNEAPOLIS    CLOUDY    26  21  81 SE6       29.95F WCI  19
INTNL FALLS    CLEAR      2  -3  80 S5        29.89S WCI  -8
DULUTH         CLOUDY    15   3  59 SW7       29.92F WCI   5
RED WING       PTCLDY    25  18  74 S3        29.98S
REDWOOD FALLS  CLEAR     28  21  75 SW9       29.90S WCI  19
MANKATO          N/A     22  19  89 S6        29.95F WCI  14
WORTHINGTON    CLEAR     27  22  81 SW15      29.92S WCI  15
FAIRMONT       CLEAR     20  16  84 SW8       29.95F WCI  10
$$

...SOUTHWEST WISCONSIN...


CITY           SKY/WX    TMP DP  RH WIND       PRES   REMARKS
LA CROSSE      CLEAR     26  22  84 S7        30.03F WCI  18
PRAIRIE DU CHI PTCLDY    23  21  93 CALM      30.07S
BOSCOBEL       CLEAR     21  18  88 CALM      30.07S FOG
LONE ROCK      NOT AVBL
PLATTEVILLE    CLEAR     28  25  90 CALM      30.05F
FORT MC COY    CLEAR     17  16  96 CALM      30.04S
MAUSTON-NEW LI MOSUNNY   23  21  94 CALM      30.03S
VIROQUA        FAIR      23  22  96 S6        30.02S WCI  15
WIS DELLS      CLEAR     26  21  83 CALM      30.05S
$$

...ELSEWHERE IN WISCONSIN...


CITY           SKY/WX    TMP DP  RH WIND       PRES   REMARKS
MILWAUKEE      CLEAR     29  20  69 CALM      30.08S
MADISON        CLEAR     24  22  91 S3        30.07R
GREEN BAY      CLEAR     25  20  81 NE7       30.07R WCI  17
EAU CLAIRE     NOT AVBL
BLACK RVR FLS  FAIR      16  15  98 CALM      30.02F FOG
MEDFORD        CLOUDY    19  13  80 E3        29.97S
WAUSAU         CLOUDY    22  16  78 E3        29.99S
WIS RAPIDS     CLOUDY    22  20  92 S5        30.03S WCI  16
MARSHFIELD     CLOUDY    23  20  88 SW6       29.99R WCI  16
RICE LAKE      LGT SNOW  26  17  68 CALM      29.99S
$$

...NORTHEAST IOWA...


CITY           SKY/WX    TMP DP  RH WIND       PRES   REMARKS
WATERLOO       CLEAR     21  19  92 CALM      30.03F FOG
DUBUQUE        PTCLDY    25  22  88 S5        30.05S WCI  19
DECORAH        CLEAR     23  21  93 S6        30.01F WCI  16
MASON CITY     CLEAR     13  10  88 S12       30.00F WCI  -1
CHARLES CITY   CLEAR     19  21 100 S8        30.01F WCI   9
OELWEIN        CLEAR     25  25 100 SE5       30.03F WCI  19
$$

...ELSEWHERE IN IOWA...


CITY           SKY/WX    TMP DP  RH WIND       PRES   REMARKS
DES MOINES     CLEAR     31  21  66 NE3       30.01F
IOWA CITY      PTCLDY    28  24  85 CALM      30.07F
FORT DODGE     CLEAR     19  14  79 CALM      30.00F
MARSHALLTOWN   PTCLDY    22  22 100 SE5       30.02S WCI  16
CEDAR RAPIDS   PTCLDY    23  22  96 SE3       30.04F
$$

...NORTHERN ILLINOIS...


CITY           SKY/WX    TMP DP  RH WIND       PRES   REMARKS
CHICAGO-OHARE  PTCLDY    33  24  69 W3        30.09R
CHICAGO-MIDWAY PTCLDY    36  24  62 S3        30.11R
MOLINE         CLEAR     26  23  88 SE5       30.07S WCI  20
ROCKFORD       MOCLDY    28  24  85 CALM      30.10S
PEORIA         CLEAR     30  25  81 CALM      30.11F
$$

NOTE: "FAIR" INDICATES FEW OR NO CLOUDS BELOW 12,000 FEET WITH NO
SIGNIFICANT WEATHER AND/OR OBSTRUCTIONS TO VISIBILITY. WIND
SPEEDS ARE IN MILES-PER-HOUR.




USA.gov is the U.S. government's official web portal to all federal, state and local government web resources and services.